This is the latest recevied weather packets stored in our database for station/object K6CED. If no packets are shown the sender has not sent any weather packets the latest 10 day(s).
| Time | Temp. | Humidity | Pressure | Rain* | Wind** | Luminosity | Snow |
|---|---|---|---|---|---|---|---|
| 1777904700 | 12.78° C | 85% | 1017.4 hPa | 0 mm | - | 101 W/m² | - |
| 1777904397 | 12.22° C | 85% | 1017.3 hPa | 0 mm | - | 110 W/m² | - |
| 1777904094 | 12.22° C | 86% | 1017.4 hPa | 0 mm | - | 106 W/m² | - |
| 1777903790 | 12.22° C | 88% | 1017.3 hPa | 0 mm | - | 125 W/m² | - |
| 1777903487 | 12.22° C | 89% | 1017.1 hPa | 0 mm | - | 96 W/m² | - |
| 1777903184 | 12.22° C | 90% | 1017.2 hPa | 0 mm | - | 89 W/m² | - |
| 1777902880 | 11.67° C | 90% | 1017.5 hPa | 0 mm | - | 58 W/m² | - |
| 1777902577 | 11.67° C | 91% | 1017.3 hPa | 0 mm | - | 49 W/m² | - |
| 1777902274 | 11.67° C | 91% | 1017.2 hPa | 0 mm | - | 45 W/m² | - |
| 1777901972 | 11.67° C | 91% | 1017.2 hPa | 0 mm | - | 24 W/m² | - |
| 1777901670 | 11.67° C | 91% | 1017.2 hPa | 0 mm | - | 20 W/m² | - |
| 1777901366 | 11.67° C | 91% | 1017.4 hPa | 0 mm | - | 19 W/m² | - |
| 1777901064 | 11.67° C | 92% | 1017.4 hPa | 0 mm | - | 18 W/m² | - |
| 1777900761 | 11.67° C | 92% | 1017.5 hPa | 0 mm | - | 10 W/m² | - |
| 1777900458 | 11.67° C | 92% | 1017.3 hPa | 0 mm | - | 6 W/m² | - |
| 1777900155 | 11.67° C | 92% | 1017.3 hPa | 0 mm | - | 5 W/m² | - |
| 1777899852 | 11.67° C | 92% | 1017.2 hPa | 0 mm | - | 3 W/m² | - |
| 1777899548 | 11.67° C | 92% | 1016.9 hPa | 0 mm | - | 2 W/m² | - |
| 1777899246 | 11.67° C | 91% | 1017.2 hPa | 0 mm | - | 1 W/m² | - |
| 1777898943 | 11.67° C | 91% | 1017.1 hPa | 0 mm | - | 1 W/m² | - |
| 1777898640 | 11.67° C | 91% | 1017 hPa | 0 mm | - | 0 W/m² | - |
| 1777898338 | 11.67° C | 91% | 1017 hPa | 0 mm | - | 0 W/m² | - |
| 1777898035 | 11.67° C | 91% | 1016.9 hPa | 0 mm | - | 0 W/m² | - |
| 1777897731 | 11.67° C | 91% | 1017.2 hPa | 0 mm | - | 0 W/m² | - |
| 1777897428 | 11.67° C | 91% | 1016.7 hPa | 0 mm | - | 0 W/m² | - |
* Rain latest hour (hover to see other rain measurements)
** Current wind speed in m/s (hover to see current wind gust speed)